sat.trackr.live / text

‹ back to catalog

ONEWEB-0633

NORAD 56074 · 2023-043AE

PAYLOAD ACTIVE UNKNOWN

§ Identity

Operator
Country
UK
Launch date
2023-03-26
Launch site
SRILR
Launch vehicle
Mass (kg)
RCS (m²)

Purposes: comms

External: N2YO · Heavens-Above · Gunter

§ Orbital elements

Epoch: 2026-09-19T22:20:02.886144Z

Period
109.46 min
Inclination
87.8994°
Eccentricity
0.0001791
Mean motion
13.15548619 rev/d
Perigee alt
1,200.4 km
Apogee alt
1,203.1 km
Semi-major
7,579.9 km
B*
4.0418e-4
RAAN
240.3034°
Arg perigee
72.0845°
Mean anomaly
288.0480°
Rev number
16,886

§ Raw data

ONEWEB-06331 56074U 23043AE  26262.93058896  .00000165  00000+0  40418-3 0  99912 56074  87.8994 240.3034 0001791  72.0845 288.0480 13.15548619168861

JSON: /api/v1/satellites/56074 · /tle

For live sub-satellite position, see the globe view (requires WebGL).

§ Visibility from observer

Set your observer location to see the next 7 days of passes ≥ 10°. The values pass through the URL so the page stays shareable.

No JS? Fill the form by hand. The geolocation button needs JavaScript.